User: anonymous   Login
Location: Haliburton Scout Reserve
(45.0900°N, 78.3200°W)
Time: 06:34:38
(UTC-04:00)
Language:

Courier 1B Rocket - Orbit

View from above orbital plane
View from above orbital plane
View from above satellite
View from above satellite

Ground track
Ground track

The orbit data is extracted from the following two-line orbital elements,

1 00059U 60013B   23150.92185702  .00000113  00000-0  34539-4 0  9992
2 00059  28.2490  83.3329 0189002 329.9179  29.0627 13.53029912 92270
Epoch (UTC): 30 May 2023 22:07:28
Eccentricity: 0.0189002
inclination: 28.2490°
perigee height: 920 km
apogee height: 1202 km
right ascension of ascending node: 83.3329°
argument of perigee: 329.9179°
revolutions per day: 13.53029912
mean anomaly at epoch: 29.0627°
orbit number at epoch: 9227

The dashed part of the orbit path shows where the satellite is in the earth's shadow,  

DLR